[[{"header":{"parameterUnit":"m.s-1","parameterCategory":2,"la1":30.2991,"la2":30.254,"lo1":-89.0895,"lo2":-89.0444,"dy":0.0017,"dx":0.0017,"nx":28,"ny":28,"refTime":"2023-06-27T21:00:00:Z","depth":"0","parameterNumber":2,"parameterNumberName":"U-component_of_CURRENTS"},"data":[0,0,0,0,0,0,0,0,0,0,0,0,0,0,0,0,0,0,0,0,0,0,0,0,0,0,0,0,0,0,0,0,0,0,0,0,0,0,0,0,0,0,0,0,0,0,0,0,0,0,0,0,0,0,0,0,0,0,0.2318,0.2319,0,0.2418,0.2419,0.2421,0.2468,0.2468,0.2468,0.2468,0.2686,0.2692,0.2698,0,0,0,0,0,0,0,0,0,0,0,0,0,0.2206,0.2208,0.2318,0.2319,0.232,0.2418,0.2419,0.2421,0.2469,0.2468,0.2468,0.2467,0.2684,0.2691,0.2698,0,0,0,0,0,0,0,0,0,0,0,0,0,0.2278,0.2209,0.2317,0.2353,0.2357,0.2418,0.242,0.2422,0.2469,0.2468,0.2468,0.2467,0.2681,0.269,0.2699,0.2765,0,0,0.2727,0.2731,0,0,0,0,0,0,0,0,0.2274,0.2282,0.2347,0.2351,0.2355,0.2428,0.246,0.2541,0.2469,0.2429,0.2468,0.2467,0.2609,0.2624,0.2646,0.2775,0.2784,0.2728,0.2733,0.2737,0.274,0,0,0,0,0,0,0,0.2269,0.2278,0.236,0.2348,0.2353,0.2377,0.2387,0.2476,0.2525,0.2433,0.2436,0.2442,0.2612,0.2637,0.2652,0.2788,0.2728,0.2736,0.2741,0.2745,0.2992,0.2993,0,0,0,0,0,0,0.2249,0.2274,0.2357,0.2363,0.2309,0.2379,0.239,0.2407,0.2521,0.2537,0.2443,0.2444,0.2622,0.2641,0.266,0.275,0.2737,0.2746,0.2751,0.2991,0.2992,0.2993,0,0,0,0,0,0,0.2247,0.2256,0.2353,0.2318,0.2331,0.2381,0.24,0.2409,0.2434,0.2527,0.2545,0.2456,0.2622,0.2647,0.2747,0.2759,0.275,0.2758,0.299,0.2991,0.2993,0.2928,0,0,0,0,0,0,0.2243,0.2255,0.2272,0.2317,0.2332,0.2392,0.2401,0.2412,0.2437,0.244,0.2546,0.2565,0.2624,0.2733,0.2756,0.2771,0.2765,0.2988,0.299,0.2992,0.2929,0.2927,0.2926,0,0,0,0,0,0.2239,0.2254,0.2273,0.2283,0.2351,0.2392,0.2403,0.2438,0.2438,0.2457,0.2528,0.2562,0.2761,0.2742,0.2768,0.2787,0.2987,0.299,0.2992,0.293,0.2928,0.2926,0,0,0,0,0,0,0.2201,0.2261,0.2283,0.2312,0.2352,0.2399,0.2413,0.2436,0.2504,0.2507,0.2589,0.2616,0.2706,0.276,0.2736,0.2863,0.2875,0.2883,0.2818,0.2818,0.2816,0.2781,0.2773,0,0,0,0,0,0.2204,0.2239,0.2289,0.2312,0.2326,0.237,0.2392,0.2416,0.2473,0.25,0.2571,0.2652,0.2738,0.2786,0.287,0.2948,0.2982,0.2974,0.2972,0.297,0.296,0.3039,0.3043,0.3001,0.3001,0.3001,0,0,0.2193,0.2231,0.2249,0.2308,0.2335,0.236,0.2383,0.241,0.2436,0.2519,0.258,0.2658,0.276,0.2844,0.2887,0.2889,0.2996,0.2973,0.2971,0.2962,0.3042,0.3046,0.3049,0.3003,0.3003,0.3002,0,0,0.2179,0.2219,0.2242,0.2275,0.232,0.2351,0.2355,0.2407,0.2436,0.2508,0.2572,0.2652,0.2777,0.2848,0.2901,0.2946,0.299,0.2972,0.2936,0.3012,0.3016,0.3019,0.3041,0.3047,0.2966,0.2966,0.2966,0,0.2162,0.2203,0.2252,0.2274,0.2293,0.234,0.2354,0.2395,0.2475,0.2503,0.2518,0.2691,0.2776,0.2877,0.289,0.2941,0.2974,0.293,0.3008,0.3012,0.3017,0.3039,0.3047,0.2963,0.2963,0.2964,0.2964,0,0.217,0.2199,0.2205,0.2257,0.2285,0.2304,0.2355,0.239,0.2423,0.2467,0.2562,0.2673,0.2769,0.2811,0.2868,0.2948,0.2955,0.2998,0.3002,0.3017,0.304,0.3048,0.2959,0.296,0.2961,0.2962,0,0,0.2143,0.2201,0.2204,0.2217,0.2276,0.2293,0.2331,0.2385,0.2404,0.2484,0.252,0.2664,0.2707,0.277,0.2852,0.2915,0.2974,0.2961,0.2967,0.2963,0.3106,0.3077,0.3084,0.3034,0.3036,0.3038,0.3097,0,0.2135,0.2161,0.22,0.2216,0.2229,0.2276,0.2306,0.2358,0.241,0.2459,0.2557,0.2635,0.2698,0.2744,0.2818,0.2951,0.3,0.2951,0.3109,0.3113,0.3071,0.3095,0.3079,0.3129,0.3106,0.3108,0.3109,0,0.2142,0.2158,0.2168,0.2194,0.2201,0.2215,0.2257,0.2294,0.2373,0.2413,0.249,0.2569,0.2681,0.2726,0.2917,0.2885,0.2982,0.3066,0.3072,0.3074,0.3102,0.312,0.3146,0.311,0.3123,0.3122,0.3121,0,0.2112,0.2137,0.214,0.2152,0.219,0.2192,0.2211,0.2275,0.2303,0.2382,0.2407,0.2542,0.2612,0.2758,0.2922,0.2933,0.3109,0.3152,0.3205,0.3202,0.3232,0.3229,0.3228,0.3272,0.3272,0.3271,0.3271,0,0.2111,0.2115,0.2117,0.2123,0.2113,0.2147,0.2154,0.2194,0.2246,0.2278,0.2376,0.2431,0.2629,0.2752,0.2899,0.3064,0.3095,0.3193,0.3226,0.3206,0.32,0.3206,0.3161,0.3274,0.3273,0.3273,0.3272,0,0.2107,0.2112,0.2109,0.2113,0.2104,0.2098,0.2107,0.2118,0.2167,0.2209,0.2231,0.2363,0.2527,0.2698,0.2932,0.3029,0.3116,0.3242,0.3169,0.3192,0.3201,0.3153,0.2969,0.2867,0.3311,0.3311,0.331,0,0.2101,0.2099,0.2088,0.2069,0.207,0.2055,0.2047,0.2079,0.2094,0.2176,0.2196,0.2338,0.2451,0.2731,0.2955,0.3171,0.3088,0.3242,0.3269,0.3185,0.3159,0.2946,0.2857,0.3277,0.3276,0.3276,0.3276,0,0.2087,0.2088,0.2094,0.2056,0.2029,0.2004,0.1993,0.1989,0.2037,0.2075,0.2148,0.2235,0.2499,0.271,0.2961,0.312,0.3072,0.3239,0.3206,0.3161,0.2879,0.2803,0.3207,0.3272,0.3273,0.3273,0.3273,0.3273,0.2067,0.2071,0.2069,0.2039,0.2001,0.1959,0.193,0.1934,0.1948,0.1984,0.2088,0.2193,0.2455,0.2829,0.3002,0.3205,0.3058,0.3213,0.3169,0.2963,0.2829,0.318,0.3252,0.3252,0.3252,0.3252,0.3252,0,0.2042,0.2061,0.2039,0.1998,0.1945,0.1937,0.1897,0.1866,0.1865,0.192,0.1983,0.2188,0.2459,0.2737,0.3049,0.3118,0.3023,0.3092,0.2838,0.2764,0.3178,0.3148,0.3136,0.3136,0.3136,0.3136,0.3136,0.3136,0.2029,0.2033,0.2038,0.1951,0.191,0.1829,0.1799,0.1768,0.1782,0.1805,0.1868,0.1954,0.2196,0.2635,0.2913,0.2978,0.2777,0.2701,0.2598,0.2994,0.3003,0.3011,0.2975,0.2927,0.2926,0.2111,0.2105,0.2101]},{"header":{"parameterUnit":"m.s-1","parameterCategory":2,"la1":30.2991,"la2":30.254,"lo1":-89.0895,"lo2":-89.0444,"dy":0.0017,"dx":0.0017,"nx":28,"ny":28,"refTime":"2023-06-27T21:00:00:Z","depth":"0","parameterNumber":3,"parameterNumberName":"V-component_of_CURRENTS"},"data":[0,0,0,0,0,0,0,0,0,0,0,0,0,0,0,0,0,0,0,0,0,0,0,0,0,0,0,0,0,0,0,0,0,0,0,0,0,0,0,0,0,0,0,0,0,0,0,0,0,0,0,0,0,0,0,0,0,0,-0.0137,-0.0136,0,-0.0063,-0.0062,-0.0061,-0.0053,-0.0054,-0.0055,-0.0056,-0.0034,-0.0032,-0.0031,0,0,0,0,0,0,0,0,0,0,0,0,0,-0.0238,-0.0236,-0.0137,-0.0136,-0.0136,-0.0063,-0.0062,-0.0061,-0.0053,-0.0054,-0.0055,-0.0056,-0.0034,-0.0032,-0.003,0,0,0,0,0,0,0,0,0,0,0,0,0,-0.0179,-0.0235,-0.0137,-0.0125,-0.0123,-0.0063,-0.0062,-0.006,-0.0053,-0.0054,-0.0056,-0.0057,-0.0035,-0.0032,-0.003,0.0014,0,0,-0.0023,-0.0022,0,0,0,0,0,0,0,0,-0.0183,-0.0175,-0.0128,-0.0126,-0.0124,-0.0071,-0.0089,-0.0039,-0.0052,-0.0077,-0.0056,-0.0058,-0.0052,-0.0048,-0.0026,0.0015,0.0016,-0.0023,-0.0022,-0.0021,-0.002,0,0,0,0,0,0,0,-0.0187,-0.0178,-0.0105,-0.0127,-0.0125,-0.0112,-0.0105,-0.0079,-0.0056,-0.0075,-0.0075,-0.007,-0.0051,-0.0028,-0.0026,0.0016,-0.0023,-0.0021,-0.002,-0.0019,0.0088,0.009,0,0,0,0,0,0,-0.0201,-0.0182,-0.0107,-0.0103,-0.0161,-0.0109,-0.0102,-0.0084,-0.0055,-0.0052,-0.0069,-0.007,-0.0031,-0.0028,-0.0025,0.0031,-0.0021,-0.0018,-0.0017,0.0087,0.0089,0.009,0,0,0,0,0,0,-0.0203,-0.0194,-0.011,-0.0144,-0.0133,-0.0106,-0.0087,-0.0082,-0.0064,-0.005,-0.0048,-0.0056,-0.0033,-0.0028,0.0008,0.0031,-0.0017,-0.0015,0.0085,0.0087,0.0089,0.0141,0,0,0,0,0,0,-0.0206,-0.0195,-0.0182,-0.0144,-0.0132,-0.0072,-0.0085,-0.008,-0.006,-0.006,-0.0038,-0.0038,-0.0033,0.0005,0.0011,0.0033,-0.0014,0.0083,0.0086,0.0089,0.0137,0.0144,0.0151,0,0,0,0,0,-0.0209,-0.0185,-0.0181,-0.0173,-0.0116,-0.0071,-0.0062,-0.0048,-0.0058,-0.0039,-0.0022,-0.0039,0.0026,0.0009,0.0015,0.0039,0.0082,0.0085,0.0089,0.0134,0.0143,0.015,0,0,0,0,0,0,-0.0212,-0.0181,-0.0177,-0.0141,-0.011,-0.0071,-0.0053,-0.0044,-0.0012,-0.0018,-0.0011,-0.0007,0.0032,0.0032,0.0013,0.0077,0.0048,0.0053,0.0081,0.0089,0.0096,0.0098,-0.0012,0,0,0,0,0,-0.0209,-0.0187,-0.0153,-0.0123,-0.0112,-0.0082,-0.0063,-0.005,-0.0022,-0.001,0.0008,0.0026,0.0054,0.0067,0.0091,0.0132,0.0116,0.0148,0.0155,0.0161,0.0167,0.0173,0.018,0.0101,0.0101,0.0101,0,0,-0.0199,-0.0181,-0.0167,-0.0124,-0.0102,-0.0062,-0.0073,-0.0041,-0.0005,-0.0012,0.004,0.0053,0.0071,0.0118,0.0134,0.0118,0.0174,0.0165,0.017,0.0173,0.0177,0.0184,0.0191,0.0103,0.0103,0.0103,0,0,-0.0172,-0.0157,-0.0132,-0.0103,-0.0071,-0.0048,-0.0041,0.0001,0.0018,0.0071,0.0073,0.0105,0.0147,0.0171,0.0186,0.0245,0.021,0.0244,0.0282,0.0287,0.0293,0.0298,0.0278,0.0282,0.0246,0.0247,0.0247,0,-0.0172,-0.0125,-0.0115,-0.0081,-0.0054,-0.0043,-0.0001,0.0029,0.008,0.0102,0.0089,0.0166,0.0177,0.0237,0.0257,0.0261,0.0245,0.0248,0.0295,0.03,0.0304,0.0282,0.0285,0.0249,0.0249,0.0249,0.0249,0,-0.0117,-0.0083,-0.0065,-0.002,0.0014,0.005,0.0085,0.0117,0.0132,0.0162,0.0218,0.0242,0.0283,0.0293,0.0295,0.0341,0.0311,0.0301,0.0271,0.0315,0.0289,0.0291,0.0254,0.0253,0.0252,0.0251,0,0,-0.0122,-0.0046,-0.004,-0.001,0.0046,0.0078,0.0134,0.0189,0.0223,0.0263,0.0313,0.0364,0.0364,0.0381,0.0385,0.0393,0.0409,0.0362,0.0361,0.0336,0.0398,0.0349,0.0346,0.0401,0.0402,0.0403,0.0363,0,-0.009,-0.0019,0.0016,0.0088,0.0126,0.0158,0.021,0.026,0.0294,0.0345,0.0367,0.0414,0.0401,0.0417,0.0428,0.0421,0.0418,0.0419,0.0365,0.0363,0.0309,0.0349,0.0381,0.0346,0.0365,0.0365,0.0365,0,-0.0053,-0.0011,0.0061,0.0136,0.0154,0.0199,0.0269,0.0319,0.0385,0.041,0.0455,0.047,0.051,0.0479,0.0483,0.0481,0.0444,0.0425,0.0423,0.0362,0.0318,0.0308,0.0348,0.0281,0.0368,0.0367,0.0367,0,-0.0069,0.0019,0.0073,0.0102,0.0188,0.0221,0.0265,0.0336,0.0378,0.0447,0.0481,0.0523,0.0542,0.0523,0.0493,0.0485,0.0474,0.0456,0.0374,0.0368,0.0379,0.0373,0.0345,0.0444,0.0444,0.0444,0.0445,0,-0.0053,-0.0014,0.0067,0.0095,0.0155,0.0217,0.0281,0.0328,0.0403,0.0463,0.0505,0.0553,0.0553,0.0551,0.0509,0.045,0.0484,0.0387,0.0364,0.0395,0.0392,0.0318,0.0257,0.0443,0.0443,0.0443,0.0444,0,-0.0086,-0.0028,0.0033,0.0121,0.0147,0.0186,0.0278,0.0329,0.0396,0.0474,0.0497,0.0572,0.0578,0.0557,0.0526,0.0465,0.037,0.0377,0.0401,0.0382,0.0231,0.0171,0.0039,0.0069,0.0282,0.0281,0.028,0,-0.0089,-0.0061,0.0028,0.0066,0.0103,0.017,0.022,0.0307,0.0369,0.0487,0.0526,0.0567,0.0612,0.0548,0.0472,0.0388,0.0325,0.0321,0.0315,0.0231,0.0148,0.0067,0.01,0.0345,0.0345,0.0345,0.0344,0,-0.0099,-0.0075,-0.003,0.0038,0.0096,0.0168,0.0249,0.0299,0.0411,0.0483,0.0577,0.0622,0.0593,0.0566,0.045,0.0376,0.027,0.0305,0.0236,0.0207,0.0103,0.012,0.0338,0.0341,0.0341,0.0341,0.0342,0.0342,-0.0113,-0.0091,-0.0031,0.0025,0.0093,0.0178,0.0244,0.0339,0.0439,0.0586,0.0611,0.0703,0.0682,0.0554,0.0404,0.0214,0.0208,0.0176,0.0112,0.0039,0.0063,0.0249,0.0211,0.0211,0.0211,0.021,0.021,0,-0.0109,-0.0083,-0.0035,0.0051,0.0116,0.0159,0.0278,0.0361,0.0484,0.0608,0.0703,0.0783,0.0706,0.0566,0.0372,0.0135,0.0041,-0.0003,-0.0069,-0.0016,0.0178,0.018,0.0115,0.0115,0.0115,0.0115,0.0116,0.0116,-0.0095,-0.0061,-0.0042,0.0058,0.012,0.023,0.0306,0.042,0.0528,0.0691,0.079,0.0881,0.0885,0.0504,0.0178,0.003,-0.0111,-0.0273,-0.0284,-0.0128,-0.0114,-0.0102,-0.0111,-0.0236,-0.0236,-0.0401,-0.0403,-0.0405]}],[{"header":{"parameterUnit":"m.s-1","parameterCategory":2,"la1":30.2991,"la2":30.254,"lo1":-89.0895,"lo2":-89.0444,"dy":0.0017,"dx":0.0017,"nx":28,"ny":28,"refTime":"2023-06-27T21:00:00:Z","depth":"2","parameterNumber":2,"parameterNumberName":"U-component_of_CURRENTS"},"data":[0,0,0,0,0,0,0,0,0,0,0,0,0,0,0,0,0,0,0,0,0,0,0,0,0,0,0,0,0,0,0,0,0,0,0,0,0,0,0,0,0,0,0,0,0,0,0,0,0,0,0,0,0,0,0,0,0,0,-0.0376,-0.0376,0,-0.0397,-0.0398,-0.0398,-0.0305,-0.0302,-0.0299,-0.0296,-0.0338,-0.0342,-0.0346,0,0,0,0,0,0,0,0,0,0,0,0,0,-0.0454,-0.0452,-0.0376,-0.0376,-0.0376,-0.0397,-0.0398,-0.0398,-0.0306,-0.0302,-0.0298,-0.0295,-0.0337,-0.0342,-0.0347,0,0,0,0,0,0,0,0,0,0,0,0,0,-0.0446,-0.0452,-0.0376,-0.0329,-0.0324,-0.0397,-0.0398,-0.0399,-0.0307,-0.0302,-0.0297,-0.0293,-0.0335,-0.0341,-0.0347,-0.048,0,0,-0.0366,-0.0369,0,0,0,0,0,0,0,0,-0.0447,-0.0444,-0.0336,-0.0332,-0.0327,-0.0339,-0.044,-0.0425,-0.0308,-0.0319,-0.0296,-0.029,-0.0341,-0.0346,-0.0367,-0.0482,-0.0483,-0.0366,-0.037,-0.0373,-0.0375,0,0,0,0,0,0,0,-0.0447,-0.0444,-0.0389,-0.0336,-0.0331,-0.0374,-0.0366,-0.0438,-0.036,-0.0317,-0.0309,-0.0306,-0.0339,-0.0362,-0.0368,-0.0484,-0.0366,-0.0372,-0.0375,-0.0378,-0.0559,-0.056,0,0,0,0,0,0,-0.0429,-0.0443,-0.0389,-0.0389,-0.0371,-0.0375,-0.0367,-0.0344,-0.0359,-0.0355,-0.031,-0.0301,-0.0354,-0.0361,-0.0369,-0.0336,-0.0373,-0.0378,-0.0382,-0.0558,-0.0559,-0.0561,0,0,0,0,0,0,-0.0431,-0.0424,-0.0388,-0.0414,-0.0412,-0.0376,-0.0354,-0.0347,-0.029,-0.0352,-0.0348,-0.0248,-0.035,-0.036,-0.039,-0.0344,-0.0381,-0.0387,-0.0557,-0.0558,-0.056,-0.0394,0,0,0,0,0,0,-0.0433,-0.0424,-0.0397,-0.0412,-0.0409,-0.0401,-0.0357,-0.0351,-0.0298,-0.0285,-0.0302,-0.0304,-0.0347,-0.038,-0.0396,-0.0353,-0.0392,-0.0555,-0.0557,-0.0559,-0.0398,-0.039,-0.0383,0,0,0,0,0,-0.0435,-0.044,-0.0395,-0.0388,-0.0374,-0.0401,-0.0404,-0.0368,-0.0298,-0.0294,-0.0296,-0.0299,-0.0404,-0.0387,-0.0404,-0.0362,-0.0554,-0.0557,-0.0559,-0.0401,-0.0391,-0.0383,0,0,0,0,0,0,-0.0453,-0.043,-0.0382,-0.0371,-0.0361,-0.0381,-0.0373,-0.0334,-0.0332,-0.0289,-0.0326,-0.0334,-0.0343,-0.0401,-0.038,-0.043,-0.0477,-0.0483,-0.0351,-0.0343,-0.0335,-0.0306,-0.0397,0,0,0,0,0,-0.0445,-0.0433,-0.0415,-0.0397,-0.0383,-0.0356,-0.0351,-0.0316,-0.032,-0.0306,-0.031,-0.0336,-0.039,-0.0394,-0.046,-0.0492,-0.0551,-0.0481,-0.0473,-0.0465,-0.046,-0.0534,-0.0531,-0.0569,-0.0569,-0.0569,0,0,-0.0445,-0.0429,-0.0418,-0.04,-0.0378,-0.0374,-0.034,-0.0309,-0.0292,-0.0322,-0.0285,-0.0313,-0.04,-0.0427,-0.0435,-0.0448,-0.0484,-0.0469,-0.046,-0.046,-0.0536,-0.0532,-0.0528,-0.0571,-0.0571,-0.057,0,0,-0.0458,-0.0415,-0.0404,-0.0396,-0.0352,-0.0354,-0.0321,-0.0291,-0.0255,-0.025,-0.0261,-0.0263,-0.0326,-0.0373,-0.0412,-0.0418,-0.045,-0.0415,-0.0332,-0.0403,-0.0399,-0.0397,-0.0441,-0.0444,-0.0397,-0.0397,-0.0397,0,-0.0438,-0.042,-0.041,-0.0395,-0.0373,-0.0328,-0.0301,-0.03,-0.0275,-0.0252,-0.0214,-0.0271,-0.0313,-0.0367,-0.0339,-0.0393,-0.0423,-0.0342,-0.0386,-0.0386,-0.0386,-0.0433,-0.0438,-0.0389,-0.039,-0.0391,-0.0392,0,-0.0451,-0.0416,-0.041,-0.0368,-0.036,-0.0332,-0.0313,-0.0275,-0.0204,-0.0193,-0.0176,-0.0228,-0.0247,-0.0258,-0.0285,-0.03,-0.0316,-0.0369,-0.0389,-0.037,-0.0423,-0.0431,-0.0378,-0.0381,-0.0383,-0.0385,0,0,-0.0397,-0.0415,-0.0391,-0.0364,-0.0324,-0.032,-0.0289,-0.0263,-0.0224,-0.0182,-0.0151,-0.0185,-0.0142,-0.0187,-0.021,-0.0245,-0.0243,-0.0262,-0.0269,-0.0269,-0.0359,-0.0232,-0.023,-0.0275,-0.0276,-0.0277,-0.0384,0,-0.0366,-0.0372,-0.0373,-0.0333,-0.0313,-0.0275,-0.0263,-0.0231,-0.0197,-0.0174,-0.0177,-0.0172,-0.0143,-0.0111,-0.0136,-0.0242,-0.026,-0.0208,-0.0411,-0.0418,-0.0276,-0.0234,-0.0278,-0.0363,-0.0393,-0.0394,-0.0395,0,-0.0315,-0.0336,-0.0317,-0.0298,-0.0277,-0.0242,-0.0182,-0.0168,-0.0153,-0.0119,-0.0084,-0.0096,-0.011,-0.0101,-0.0212,-0.0163,-0.0221,-0.0299,-0.0307,-0.0253,-0.0305,-0.0399,-0.0378,-0.041,-0.0409,-0.0408,-0.0407,0,-0.0262,-0.0258,-0.0249,-0.024,-0.0238,-0.0178,-0.0142,-0.0111,-0.0086,-0.0062,-0.0037,-0.0068,-0.0066,-0.0151,-0.0216,-0.0215,-0.0362,-0.0418,-0.0369,-0.0363,-0.0476,-0.0474,-0.05,-0.05,-0.05,-0.05,-0.0499,0,-0.021,-0.0174,-0.0212,-0.0197,-0.0133,-0.0124,-0.0043,-0.0011,0.001,0.0041,0.0029,0.0028,-0.0068,-0.0142,-0.0225,-0.0281,-0.0365,-0.0335,-0.0373,-0.0415,-0.0407,-0.0523,-0.0524,-0.0504,-0.0503,-0.0502,-0.0501,0,-0.0123,-0.0156,-0.0132,-0.0131,-0.0096,-0.0032,0.0051,0.0081,0.0107,0.0142,0.0163,0.0098,0.0048,-0.0054,-0.0223,-0.0271,-0.038,-0.0384,-0.0387,-0.0418,-0.0341,-0.0333,-0.0365,-0.0362,-0.0358,-0.0356,-0.0354,0,-0.0085,-0.0077,-0.007,-0.0028,0.0007,0.0087,0.0149,0.0174,0.0192,0.0186,0.0191,0.0163,0.0137,-0.0033,-0.0134,-0.0247,-0.0273,-0.0334,-0.0332,-0.0288,-0.0324,-0.0321,-0.0318,-0.0445,-0.0444,-0.0443,-0.0442,0,-0.0022,-0.0014,-0.0034,0.0057,0.014,0.0185,0.027,0.0284,0.0299,0.0305,0.0295,0.0263,0.0157,0.0018,-0.008,-0.0162,-0.031,-0.0305,-0.0328,-0.0414,-0.0355,-0.0392,-0.0389,-0.0432,-0.0433,-0.0434,-0.0434,-0.0435,0.0036,0.0044,0.0043,0.0148,0.0222,0.03,0.0365,0.0373,0.0403,0.035,0.0302,0.0215,0.0026,-0.0113,-0.0157,-0.0147,-0.0173,-0.0261,-0.027,-0.0279,-0.021,-0.0143,-0.0169,-0.0168,-0.0168,-0.0167,-0.0167,0,0.0098,0.0114,0.0161,0.0249,0.0343,0.0399,0.0452,0.0444,0.0481,0.0325,0.0267,0.0056,-0.0091,-0.0152,-0.0137,-0.0178,-0.0237,-0.0164,-0.0288,-0.0298,-0.0307,-0.0243,-0.0209,-0.0208,-0.0208,-0.0207,0,0,0.0125,0.0166,0.018,0.0353,0.0457,0.0592,0.0644,0.0584,0.0472,0.0266,0.0154,-0.0148,-0.0184,-0.024,-0.0283,-0.02,-0.0234,-0.0187,-0.0167,-0.0323,-0.033,-0.0387,-0.0301,0,0,0,0,0]},{"header":{"parameterUnit":"m.s-1","parameterCategory":2,"la1":30.2991,"la2":30.254,"lo1":-89.0895,"lo2":-89.0444,"dy":0.0017,"dx":0.0017,"nx":28,"ny":28,"refTime":"2023-06-27T21:00:00:Z","depth":"2","parameterNumber":3,"parameterNumberName":"V-component_of_CURRENTS"},"data":[0,0,0,0,0,0,0,0,0,0,0,0,0,0,0,0,0,0,0,0,0,0,0,0,0,0,0,0,0,0,0,0,0,0,0,0,0,0,0,0,0,0,0,0,0,0,0,0,0,0,0,0,0,0,0,0,0,0,-0.002,-0.0021,0,-0.0137,-0.0139,-0.0141,-0.0241,-0.0242,-0.0243,-0.0244,-0.038,-0.0383,-0.0386,0,0,0,0,0,0,0,0,0,0,0,0,0,0.0117,0.0115,-0.002,-0.0021,-0.0022,-0.0137,-0.0139,-0.0141,-0.0241,-0.0242,-0.0243,-0.0244,-0.0379,-0.0383,-0.0386,0,0,0,0,0,0,0,0,0,0,0,0,0,0.0031,0.0114,-0.002,-0.0083,-0.009,-0.0137,-0.0139,-0.0142,-0.0241,-0.0242,-0.0243,-0.0244,-0.0378,-0.0382,-0.0387,-0.0391,0,0,-0.04,-0.0402,0,0,0,0,0,0,0,0,0.0036,0.0025,-0.0073,-0.0079,-0.0086,-0.0172,-0.0141,-0.0224,-0.0241,-0.0188,-0.0244,-0.0245,-0.0309,-0.0319,-0.0344,-0.0397,-0.0403,-0.04,-0.0403,-0.0405,-0.0406,0,0,0,0,0,0,0,0.0042,0.003,-0.0071,-0.0074,-0.0082,-0.0105,-0.0119,-0.0157,-0.0244,-0.0193,-0.0199,-0.0205,-0.0314,-0.034,-0.0348,-0.0405,-0.04,-0.0404,-0.0407,-0.0409,-0.0529,-0.0529,0,0,0,0,0,0,0.0065,0.0035,-0.0067,-0.0074,-0.0022,-0.0106,-0.0122,-0.0147,-0.0243,-0.0258,-0.0204,-0.021,-0.0332,-0.0343,-0.0353,-0.0416,-0.0405,-0.0409,-0.0412,-0.0528,-0.0529,-0.0529,0,0,0,0,0,0,0.0068,0.0057,-0.0062,-0.0017,-0.0034,-0.0107,-0.0134,-0.0148,-0.0178,-0.0251,-0.0267,-0.0219,-0.0333,-0.0347,-0.0422,-0.042,-0.0411,-0.0415,-0.0527,-0.0528,-0.0529,-0.0509,0,0,0,0,0,0,0.0072,0.0058,0.005,-0.0016,-0.0035,-0.0089,-0.0133,-0.015,-0.0178,-0.0187,-0.0269,-0.0283,-0.0335,-0.0415,-0.0426,-0.0426,-0.0418,-0.0527,-0.0528,-0.0529,-0.0509,-0.0509,-0.0509,0,0,0,0,0,0.0077,0.0077,0.0049,0.0037,-0.0046,-0.0088,-0.0101,-0.0159,-0.0177,-0.019,-0.0269,-0.0281,-0.0428,-0.042,-0.0433,-0.0434,-0.0526,-0.0528,-0.0529,-0.0509,-0.0509,-0.0509,0,0,0,0,0,0,0.0133,0.0065,0.0033,0.0011,-0.0035,-0.0104,-0.0113,-0.0149,-0.0218,-0.0226,-0.0302,-0.0322,-0.0385,-0.0411,-0.0399,-0.0471,-0.0472,-0.0476,-0.0452,-0.0453,-0.0453,-0.0406,-0.0422,0,0,0,0,0,0.0143,0.0127,0.0055,0.0043,0.002,-0.0044,-0.0066,-0.0103,-0.0169,-0.02,-0.0262,-0.0327,-0.0396,-0.0427,-0.0484,-0.0523,-0.0507,-0.0527,-0.0527,-0.0527,-0.0497,-0.0515,-0.0513,-0.0533,-0.0533,-0.0533,0,0,0.0164,0.0128,0.0118,0.0055,0.0015,-0.0017,-0.0062,-0.0087,-0.0119,-0.0201,-0.0264,-0.033,-0.0409,-0.0471,-0.0496,-0.0494,-0.0506,-0.0529,-0.0528,-0.0498,-0.0516,-0.0514,-0.0512,-0.0534,-0.0534,-0.0534,0,0,0.0207,0.0162,0.0158,0.0123,0.0073,0.0023,0.002,-0.0052,-0.0095,-0.0157,-0.0236,-0.0306,-0.0389,-0.0461,-0.0505,-0.0531,-0.051,-0.0538,-0.0498,-0.0516,-0.0514,-0.0512,-0.0453,-0.0446,-0.0533,-0.0533,-0.0533,0,0.023,0.0208,0.0155,0.0141,0.0119,0.0043,0.0032,-0.0025,-0.0112,-0.0142,-0.0168,-0.0315,-0.0384,-0.0474,-0.0492,-0.0529,-0.0505,-0.0495,-0.0514,-0.0512,-0.051,-0.0451,-0.0443,-0.0532,-0.0532,-0.0533,-0.0533,0,0.0258,0.0242,0.0242,0.0187,0.0159,0.0142,0.0061,0.0022,-0.0031,-0.0089,-0.0174,-0.0283,-0.0357,-0.0402,-0.0458,-0.049,-0.0463,-0.0516,-0.0507,-0.0506,-0.0444,-0.0437,-0.0531,-0.0531,-0.0532,-0.0532,0,0,0.0273,0.0263,0.0258,0.0249,0.0183,0.0159,0.0114,0.0042,0.0015,-0.0074,-0.0112,-0.0249,-0.0284,-0.0334,-0.0417,-0.0446,-0.0419,-0.0461,-0.0462,-0.0387,-0.0389,-0.0294,-0.0276,-0.0475,-0.0474,-0.0474,-0.0337,0,0.0294,0.0312,0.0289,0.0279,0.0263,0.0202,0.0166,0.0102,0.0036,-0.0021,-0.0131,-0.0197,-0.0268,-0.0298,-0.0341,-0.042,-0.0402,-0.0446,-0.0412,-0.0409,-0.0315,-0.0267,-0.0299,-0.0174,-0.0329,-0.0328,-0.0327,0,0.0294,0.0306,0.0328,0.032,0.0308,0.0294,0.0236,0.0199,0.0105,0.0066,-0.0006,-0.0087,-0.0163,-0.0216,-0.0283,-0.0303,-0.0312,-0.0358,-0.0355,-0.0263,-0.0301,-0.021,-0.0154,-0.0314,-0.0315,-0.0316,-0.0317,0,0.0307,0.0317,0.0346,0.0339,0.0318,0.0319,0.03,0.0228,0.0197,0.0133,0.0114,0.0014,-0.0033,-0.0086,-0.0173,-0.0214,-0.0217,-0.0292,-0.0197,-0.0188,-0.0203,-0.0196,-0.028,-0.028,-0.028,-0.0281,-0.0281,0,0.0314,0.0323,0.0362,0.0367,0.0382,0.0365,0.0363,0.0329,0.0287,0.0252,0.0173,0.0122,-0.0003,-0.0047,-0.0109,-0.0104,-0.0151,-0.0143,-0.0146,-0.0192,-0.0186,-0.0317,-0.0323,-0.0275,-0.0277,-0.0278,-0.0279,0,0.0308,0.0338,0.0354,0.0377,0.0387,0.0395,0.0407,0.0402,0.0376,0.0335,0.0324,0.0222,0.0177,0.0093,0.0014,-0.0,-0.0026,-0.0003,0.0001,-0.0004,0.0014,0.0007,0.014,0.0145,0.0149,0.0152,0.0154,0,0.0308,0.0329,0.0367,0.0381,0.0394,0.0419,0.0435,0.0437,0.043,0.0372,0.035,0.0311,0.0274,0.0251,0.0238,0.0254,0.0097,0.0203,0.011,0.0075,0.0057,0.0044,0.0032,0.0109,0.0111,0.0112,0.0114,0,0.0299,0.0321,0.0345,0.0378,0.0407,0.0447,0.0475,0.0479,0.0466,0.0457,0.0417,0.0402,0.042,0.0375,0.042,0.0402,0.0196,0.0245,0.0181,0.0015,0.0057,0.0035,0.0022,0.0129,0.0127,0.0126,0.0125,0.0125,0.0286,0.0308,0.0348,0.0372,0.0405,0.0452,0.0487,0.0518,0.0535,0.0517,0.0495,0.0459,0.0305,0.0389,0.043,0.0498,0.0461,0.032,0.0308,0.0296,0.0275,0.0322,0.0445,0.0445,0.0445,0.0446,0.0446,0,0.0274,0.031,0.0339,0.0382,0.0411,0.0438,0.0493,0.053,0.0564,0.053,0.0555,0.0389,0.0404,0.0312,0.0484,0.0553,0.0541,0.0482,0.0348,0.0332,0.0318,0.0293,0.047,0.0471,0.0472,0.0473,0,0,0.0285,0.0306,0.0335,0.0375,0.0402,0.0457,0.0493,0.0554,0.054,0.0486,0.0425,0.0406,0.0261,0.0276,0.0315,0.0411,0.0389,0.046,0.0424,0.0245,0.0232,0.02,0.0142,0,0,0,0,0]}],[{"header":{"parameterUnit":"m.s-1","parameterCategory":2,"la1":30.2991,"la2":30.254,"lo1":-89.0895,"lo2":-89.0444,"dy":0.0017,"dx":0.0017,"nx":28,"ny":28,"refTime":"2023-06-27T21:00:00:Z","depth":"4","parameterNumber":2,"parameterNumberName":"U-component_of_CURRENTS"},"data":[0,0,0,0,0,0,0,0,0,0,0,0,0,0,0,0,0,0,0,0,0,0,0,0,0,0,0,0,0,0,0,0,0,0,0,0,0,0,0,0,0,0,0,0,0,0,0,0,0,0,0,0,0,0,0,0,0,0,-0.0907,-0.0908,0,-0.0939,-0.094,-0.094,-0.097,-0.0971,-0.0972,-0.0972,-0.1014,-0.1014,-0.1015,0,0,0,0,0,0,0,0,0,0,0,0,0,-0.0824,-0.0826,-0.0907,-0.0908,-0.0909,-0.0939,-0.094,-0.094,-0.097,-0.0971,-0.0972,-0.0973,-0.1014,-0.1014,-0.1015,0,0,0,0,0,0,0,0,0,0,0,0,0,-0.0856,-0.0826,-0.0907,-0.093,-0.0933,-0.0939,-0.094,-0.094,-0.097,-0.0971,-0.0972,-0.0973,-0.1014,-0.1014,-0.1015,-0.0998,0,0,-0.1017,-0.1017,0,0,0,0,0,0,0,0,-0.0854,-0.0858,-0.0926,-0.0929,-0.0932,-0.0955,-0.0926,-0.0961,-0.097,-0.0952,-0.0972,-0.0974,-0.0997,-0.0999,-0.0997,-0.1,-0.1001,-0.1017,-0.1017,-0.1018,-0.1018,0,0,0,0,0,0,0,-0.0852,-0.0857,-0.0916,-0.0927,-0.093,-0.0923,-0.0928,-0.0932,-0.0965,-0.0954,-0.0957,-0.0966,-0.0998,-0.0996,-0.0999,-0.1002,-0.1017,-0.1018,-0.1018,-0.1018,-0.1108,-0.111,0,0,0,0,0,0,-0.0856,-0.0855,-0.0915,-0.0918,-0.0899,-0.0924,-0.093,-0.0944,-0.0965,-0.0971,-0.0965,-0.0967,-0.0995,-0.0998,-0.1,-0.1107,-0.1018,-0.1018,-0.1019,-0.1106,-0.1108,-0.111,0,0,0,0,0,0,-0.0854,-0.0862,-0.0914,-0.0889,-0.0896,-0.0925,-0.0939,-0.0944,-0.0972,-0.0974,-0.0979,-0.0992,-0.0996,-0.0999,-0.1023,-0.1104,-0.1019,-0.1019,-0.1104,-0.1107,-0.1109,-0.1239,0,0,0,0,0,0,-0.0852,-0.0861,-0.0882,-0.089,-0.0898,-0.0938,-0.0939,-0.0944,-0.0975,-0.0979,-0.0999,-0.1002,-0.0997,-0.1022,-0.1023,-0.1103,-0.102,-0.1101,-0.1105,-0.1108,-0.1232,-0.1246,-0.1258,0,0,0,0,0,-0.0849,-0.0868,-0.0883,-0.0891,-0.0923,-0.0939,-0.0942,-0.0963,-0.0976,-0.0991,-0.1002,-0.1003,-0.1048,-0.1023,-0.1025,-0.1107,-0.1099,-0.1104,-0.1108,-0.1227,-0.1244,-0.1258,0,0,0,0,0,0,-0.0845,-0.0874,-0.089,-0.092,-0.094,-0.0946,-0.0963,-0.0978,-0.0997,-0.1006,-0.1009,-0.1012,-0.108,-0.1056,-0.1029,-0.1142,-0.1082,-0.1087,-0.1172,-0.1187,-0.12,-0.1206,-0.102,0,0,0,0,0,-0.0854,-0.0874,-0.0901,-0.0923,-0.0938,-0.0956,-0.097,-0.0984,-0.0998,-0.1009,-0.1026,-0.1048,-0.1093,-0.1108,-0.113,-0.1168,-0.1143,-0.1226,-0.1239,-0.125,-0.1255,-0.1314,-0.1333,-0.1125,-0.1125,-0.1125,0,0,-0.086,-0.0875,-0.0891,-0.0924,-0.0939,-0.0964,-0.0967,-0.0992,-0.1021,-0.1009,-0.1057,-0.1095,-0.1113,-0.1177,-0.1205,-0.117,-0.1284,-0.1256,-0.1265,-0.1264,-0.1321,-0.1341,-0.1359,-0.1128,-0.1128,-0.1127,0,0,-0.0865,-0.0896,-0.0915,-0.0935,-0.0967,-0.0979,-0.0995,-0.1024,-0.105,-0.1087,-0.1117,-0.1174,-0.1218,-0.1254,-0.1277,-0.1359,-0.1359,-0.1407,-0.1473,-0.1532,-0.1549,-0.1565,-0.151,-0.1519,-0.1406,-0.1406,-0.1406,0,-0.0872,-0.0899,-0.0922,-0.0944,-0.0966,-0.0992,-0.1019,-0.1046,-0.1081,-0.1115,-0.1115,-0.1248,-0.1246,-0.1362,-0.1403,-0.139,-0.1407,-0.1418,-0.1551,-0.1566,-0.158,-0.1519,-0.1529,-0.1413,-0.1412,-0.1411,-0.1411,0,-0.0884,-0.0919,-0.0929,-0.0969,-0.0998,-0.1019,-0.1064,-0.1099,-0.1137,-0.1178,-0.1303,-0.1333,-0.1418,-0.145,-0.1451,-0.1589,-0.156,-0.157,-0.1515,-0.1609,-0.1538,-0.1545,-0.1422,-0.142,-0.1418,-0.1416,0,0,-0.0864,-0.0926,-0.0932,-0.0959,-0.1013,-0.1031,-0.1089,-0.1153,-0.1208,-0.1288,-0.1382,-0.1484,-0.1553,-0.1584,-0.1637,-0.1686,-0.1763,-0.1694,-0.1694,-0.1642,-0.1855,-0.1624,-0.1608,-0.1849,-0.1852,-0.1855,-0.1747,0,-0.0867,-0.0902,-0.0942,-0.0991,-0.1018,-0.1068,-0.1125,-0.1192,-0.1255,-0.1349,-0.1448,-0.1583,-0.1597,-0.1698,-0.1749,-0.1785,-0.1801,-0.1787,-0.1767,-0.1763,-0.1554,-0.1616,-0.1865,-0.1752,-0.1753,-0.1755,-0.1755,0,-0.0866,-0.0891,-0.0936,-0.101,-0.1031,-0.1076,-0.1168,-0.1227,-0.136,-0.1435,-0.159,-0.1694,-0.1832,-0.1826,-0.1911,-0.1933,-0.1904,-0.1894,-0.189,-0.1638,-0.1549,-0.165,-0.1768,-0.1767,-0.1766,-0.1765,-0.1764,0,-0.0822,-0.0889,-0.0921,-0.0944,-0.1035,-0.1082,-0.1145,-0.1261,-0.1303,-0.1541,-0.1621,-0.1812,-0.1924,-0.1971,-0.1955,-0.1986,-0.1981,-0.1995,-0.1733,-0.1712,-0.1894,-0.1879,-0.2026,-0.2026,-0.2026,-0.2026,-0.2027,0,-0.0796,-0.083,-0.0911,-0.093,-0.0994,-0.1078,-0.1167,-0.1265,-0.138,-0.1423,-0.1699,-0.1732,-0.1993,-0.2015,-0.198,-0.1847,-0.1994,-0.1736,-0.1691,-0.1939,-0.1932,-0.1895,-0.1881,-0.2022,-0.2023,-0.2024,-0.2025,0,-0.075,-0.0798,-0.0841,-0.0936,-0.0977,-0.103,-0.114,-0.1176,-0.1355,-0.1416,-0.1519,-0.1713,-0.1728,-0.1847,-0.1879,-0.1842,-0.1756,-0.166,-0.1845,-0.1813,-0.1431,-0.1426,-0.1374,-0.1366,-0.1359,-0.1353,-0.1347,0,-0.0723,-0.0739,-0.0831,-0.0847,-0.0898,-0.0988,-0.1027,-0.1165,-0.1194,-0.1298,-0.1298,-0.1406,-0.1501,-0.1381,-0.1489,-0.144,-0.1421,-0.1455,-0.1521,-0.1414,-0.1377,-0.1382,-0.1386,-0.1336,-0.1334,-0.1332,-0.133,0,-0.0654,-0.0693,-0.0722,-0.0775,-0.0812,-0.0846,-0.0918,-0.0915,-0.1029,-0.1171,-0.11,-0.113,-0.1105,-0.1159,-0.1192,-0.1125,-0.1509,-0.1379,-0.1395,-0.1458,-0.1367,-0.1338,-0.1351,-0.1305,-0.1309,-0.1311,-0.1313,0,-0.0607,-0.0601,-0.0635,-0.0684,-0.0696,-0.0675,-0.0748,-0.0754,-0.0787,-0.092,-0.081,-0.0875,-0.0987,-0.0968,-0.0905,-0.0933,-0.0919,-0.1017,-0.1052,-0.1081,-0.1045,-0.0891,-0.0638,0,0,0,0,0,-0.0551,-0.0532,-0.0538,-0.0548,-0.0539,-0.0561,-0.0637,-0.0707,-0.0797,-0.0706,-0.0772,-0.0703,-0.067,-0.068,-0.064,-0.0727,-0.0922,-0.0683,-0.1053,-0.1166,-0.1195,-0.1185,0,0,0,0,0,0,-0.0503,-0.0506,-0.0502,-0.0401,-0.0379,-0.0358,-0.0399,-0.047,-0.0471,-0.0572,-0.0551,-0.0653,-0.0623,-0.0636,-0.0603,-0.0615,-0.0844,-0.0714,-0.0714,-0.115,-0.1176,-0.1199,-0.1199,0,0,0,0,0]},{"header":{"parameterUnit":"m.s-1","parameterCategory":2,"la1":30.2991,"la2":30.254,"lo1":-89.0895,"lo2":-89.0444,"dy":0.0017,"dx":0.0017,"nx":28,"ny":28,"refTime":"2023-06-27T21:00:00:Z","depth":"4","parameterNumber":3,"parameterNumberName":"V-component_of_CURRENTS"},"data":[0,0,0,0,0,0,0,0,0,0,0,0,0,0,0,0,0,0,0,0,0,0,0,0,0,0,0,0,0,0,0,0,0,0,0,0,0,0,0,0,0,0,0,0,0,0,0,0,0,0,0,0,0,0,0,0,0,0,0.0124,0.0124,0,0.0173,0.0174,0.0175,0.0241,0.0242,0.0243,0.0244,0.0319,0.032,0.0321,0,0,0,0,0,0,0,0,0,0,0,0,0,0.0112,0.0112,0.0124,0.0124,0.0125,0.0173,0.0174,0.0175,0.024,0.0242,0.0243,0.0244,0.0319,0.032,0.0321,0,0,0,0,0,0,0,0,0,0,0,0,0,0.0135,0.0112,0.0124,0.0163,0.0167,0.0173,0.0174,0.0175,0.024,0.0242,0.0243,0.0245,0.0318,0.032,0.0321,0.03,0,0,0.0326,0.0327,0,0,0,0,0,0,0,0,0.0134,0.0136,0.0157,0.016,0.0165,0.0202,0.0198,0.0218,0.024,0.0213,0.0244,0.0245,0.0281,0.0285,0.0292,0.0303,0.0306,0.0326,0.0327,0.0328,0.0328,0,0,0,0,0,0,0,0.0132,0.0134,0.0144,0.0157,0.0162,0.0187,0.0192,0.0202,0.0238,0.0215,0.022,0.0224,0.0283,0.029,0.0294,0.0307,0.0326,0.0327,0.0328,0.0329,0.0323,0.0322,0,0,0,0,0,0,0.0122,0.0132,0.0142,0.0145,0.0152,0.0186,0.0192,0.0189,0.0238,0.0246,0.0223,0.0227,0.0287,0.0292,0.0297,0.0292,0.0328,0.0329,0.033,0.0324,0.0323,0.0322,0,0,0,0,0,0,0.0121,0.0122,0.014,0.014,0.0144,0.0184,0.0181,0.0189,0.0203,0.0243,0.0253,0.023,0.0288,0.0295,0.0307,0.0295,0.033,0.0331,0.0325,0.0324,0.0322,0.0271,0,0,0,0,0,0,0.012,0.0121,0.0118,0.0139,0.0144,0.0143,0.018,0.0189,0.0202,0.0209,0.0251,0.026,0.029,0.0305,0.0309,0.0298,0.0332,0.0327,0.0325,0.0323,0.0274,0.0268,0.0262,0,0,0,0,0,0.012,0.0108,0.0117,0.0119,0.0137,0.0143,0.0147,0.0182,0.0201,0.0201,0.023,0.0259,0.0295,0.0305,0.031,0.0299,0.0328,0.0325,0.0323,0.0276,0.0269,0.0262,0,0,0,0,0,0,0.0102,0.0114,0.0125,0.0118,0.0129,0.0154,0.0157,0.0175,0.0197,0.0204,0.0246,0.0255,0.0264,0.0281,0.0291,0.0289,0.0315,0.0313,0.0278,0.0271,0.0265,0.0247,0.0334,0,0,0,0,0,0.0094,0.0088,0.0104,0.0097,0.0101,0.0126,0.0134,0.0151,0.0172,0.0184,0.0212,0.0237,0.0254,0.0263,0.0282,0.0276,0.0335,0.027,0.0264,0.0259,0.0247,0.0374,0.038,0.0313,0.0313,0.0314,0,0,0.0084,0.0089,0.0086,0.0093,0.0105,0.0092,0.0135,0.0138,0.0122,0.0186,0.018,0.022,0.0248,0.025,0.0254,0.0265,0.0299,0.0256,0.0252,0.0242,0.0372,0.0379,0.0385,0.0312,0.0312,0.0312,0,0,0.0054,0.0065,0.005,0.0049,0.0059,0.0069,0.0066,0.0086,0.0095,0.009,0.0136,0.0145,0.0181,0.0187,0.0197,0.0159,0.0269,0.0194,0.0147,0.0271,0.0279,0.0286,0.0336,0.0348,0.0187,0.0187,0.0187,0,0.0041,0.0023,0.0046,0.0026,0.0015,0.0052,0.0023,0.0029,0.005,0.0041,0.0078,0.0117,0.0131,0.013,0.0129,0.014,0.0247,0.0175,0.0268,0.0277,0.0285,0.0335,0.0349,0.0184,0.0184,0.0185,0.0185,0,-0.0,-0.0019,-0.003,-0.0047,-0.0058,-0.0073,-0.007,-0.0077,-0.0061,-0.0052,-0.004,0.0001,0.0023,0.0037,0.0075,0.0133,0.0198,0.0256,0.0293,0.029,0.034,0.0356,0.018,0.0181,0.0182,0.0183,0,0,-0.0029,-0.0053,-0.0061,-0.0088,-0.01,-0.0118,-0.0155,-0.0178,-0.021,-0.0165,-0.0194,-0.0151,-0.0097,-0.0082,-0.0018,0.0084,0.0205,0.0216,0.0224,0.0274,0.0489,0.0288,0.0287,0.0353,0.0356,0.0359,0.0488,0,-0.007,-0.0124,-0.013,-0.0197,-0.0225,-0.0227,-0.0271,-0.0292,-0.0289,-0.0307,-0.0255,-0.0233,-0.0147,-0.0109,-0.0002,0.0174,0.0256,0.0163,0.0474,0.048,0.0314,0.03,0.0369,0.05,0.0504,0.0507,0.0509,0,-0.0114,-0.0145,-0.0211,-0.0281,-0.0297,-0.0337,-0.0406,-0.0439,-0.0457,-0.0452,-0.041,-0.0332,-0.0228,-0.0137,0.0151,0.0133,0.0292,0.0425,0.0436,0.0277,0.0309,0.0513,0.0539,0.0537,0.0535,0.0533,0.0531,0,-0.0149,-0.0213,-0.0269,-0.029,-0.0354,-0.0401,-0.0441,-0.0483,-0.0523,-0.0518,-0.053,-0.0379,-0.0302,-0.0041,0.0176,0.0246,0.0483,0.0596,0.0538,0.0525,0.0697,0.0689,0.0781,0.0781,0.0781,0.078,0.078,0,-0.0195,-0.0248,-0.0291,-0.0325,-0.0419,-0.0448,-0.054,-0.0576,-0.0616,-0.0647,-0.0584,-0.056,-0.0236,-0.0085,0.0153,0.034,0.0461,0.0506,0.0547,0.0663,0.0649,0.0707,0.0697,0.0785,0.0784,0.0783,0.0782,0,-0.0236,-0.0256,-0.0329,-0.0401,-0.0436,-0.0505,-0.0605,-0.0656,-0.0696,-0.0733,-0.0713,-0.0629,-0.043,-0.0227,0.0144,0.0263,0.0481,0.05,0.0507,0.0551,0.0465,0.0451,0.0528,0.0522,0.0517,0.0513,0.0509,0,-0.0262,-0.0295,-0.0384,-0.0436,-0.0475,-0.057,-0.063,-0.0689,-0.0719,-0.076,-0.0762,-0.066,-0.0577,-0.0269,-0.0041,0.0262,0.0307,0.0408,0.0528,0.0407,0.0442,0.0435,0.0427,0.0501,0.05,0.0499,0.0497,0,-0.0304,-0.0327,-0.038,-0.0479,-0.0551,-0.064,-0.0711,-0.0736,-0.0769,-0.0811,-0.0755,-0.0654,-0.054,-0.0286,-0.0161,0.0094,0.036,0.0359,0.0376,0.049,0.0376,0.0414,0.0412,0.048,0.0482,0.0484,0.0485,0,-0.0332,-0.0373,-0.0425,-0.0512,-0.0605,-0.0666,-0.0716,-0.0724,-0.0755,-0.0761,-0.0725,-0.0645,-0.0548,-0.0384,-0.0223,-0.008,0.0045,0.0199,0.0228,0.0249,0.0097,-0.0093,-0.0115,0,0,0,0,0,-0.0349,-0.038,-0.0458,-0.054,-0.0625,-0.0669,-0.0744,-0.0768,-0.0777,-0.0722,-0.072,-0.0614,-0.0452,-0.0402,-0.0276,-0.03,0.0047,-0.0151,0.0236,0.0383,0.0403,0.0249,0,0,0,0,0,0,-0.0366,-0.0422,-0.0442,-0.0521,-0.0578,-0.0662,-0.0703,-0.0719,-0.0681,-0.0677,-0.0589,-0.056,-0.0409,-0.0502,-0.026,-0.0235,0.0034,-0.0087,-0.0084,0.0371,0.039,0.0406,0.0255,0,0,0,0,0]}]]